Wind_Speed
35 36 36 37 37 37 36 36 36 36 36 35 36 36 35 33 33 32 31 30 31 30 29 29 28 28 28 28 27 27 27 27 27 27 27 28 28 28
32 34 36 35 36 37 36 36 36 36 36 36 36 37 37 35 34 33 32 31 31 31 31 30 29 29 29 29 28 28 29 29 29 29 29 29 29 29
29 31 34 34 34 35 35 35 35 35 35 35 36 36 37 37 36 35 34 34 33 31 30 31 31 31 30 30 29 29 30 29 30 30 30 30 30 30
26 27 30 31 30 30 32 33 33 33 33 34 34 34 35 35 35 35 35 34 33 33 32 32 32 31 31 30 30 29 29 29 30 30 30 30 30 30
22 24 27 28 28 28 28 29 31 31 32 33 34 34 34 34 34 33 33 33 32 32 32 32 31 30 29 28 28 27 28 28 28 28 28 28 29 29
18 20 23 24 24 25 26 26 27 29 30 32 34 34 33 33 34 33 32 32 32 32 32 32 31 29 27 27 27 27 27 27 27 27 27 28 28 28
15 17 19 20 20 22 23 25 25 26 28 29 29 31 31 31 32 32 32 31 30 30 30 30 29 28 28 27 27 27 27 27 27 27 26 26 26 26
12 14 16 17 18 19 21 22 22 23 24 26 27 28 29 29 29 30 29 29 30 30 29 27 26 27 26 26 26 26 25 26 25 25 25 25 25 25
8 11 13 15 16 17 18 19 20 21 22 23 25 26 26 27 27 26 26 27 27 26 26 25 24 24 24 24 24 24 24 24 24 24 24 24 24 23
5 8 10 13 14 14 15 16 17 18 19 20 21 22 23 24 23 24 24 24 23 22 22 22 23 23 23 22 22 22 23 23 23 23 22 21 20 19
2 4 6 8 10 11 13 15 16 16 17 18 18 19 20 21 21 22 22 22 21 20 20 20 20 21 21 20 20 21 21 20 20 20 20 18 17 16
2 1 2 4 6 7 9 10 12 13 14 15 15 16 17 19 19 19 19 19 19 19 19 19 19 19 19 18 18 17 18 18 17 16 15 14 14 13
5 3 1 1 2 4 6 7 7 9 10 12 13 14 15 16 16 16 16 16 16 16 16 16 16 16 16 16 15 15 15 14 14 14 14 13 12 12
7 5 3 3 2 2 3 4 5 7 7 9 11 12 12 13 13 13 14 14 14 14 14 14 14 14 14 13 13 13 12 11 11 11 11 11 11 11
9 7 6 5 4 4 3 3 3 4 5 7 8 9 9 10 11 12 11 11 11 11 12 13 13 12 12 12 12 11 10 10 10 10 9 10 10 10
11 10 9 8 7 7 6 5 5 5 5 5 6 7 8 8 9 10 10 10 10 10 11 11 10 9 9 9 10 9 10 10 10 10 9 9 9 9
11 10 10 9 8 7 6 5 5 5 4 5 5 5 5 5 6 7 8 8 8 9 9 8 8 9 9 10 9 9 9 10 10 10 9 9 9 9
10 9 9 8 8 7 6 6 5 4 4 4 4 4 3 3 3 5 6 6 7 8 8 9 9 9 9 9 9 9 9 9 9 9 9 9 9 9
10 9 7 7 6 6 5 5 4 4 3 3 3 3 2 2 2 3 4 5 6 6 7 8 9 9 9 9 9 9 9 9 9 9 9 9 9 9
7 7 6 6 5 5 4 3 3 3 3 2 2 2 2 2 2 3 4 4 5 6 6 7 8 8 8 8 8 8 9 9 9 9 9 9 9 9
5 5 4 4 4 3 3 3 2 2 2 2 1 1 1 2 3 4 4 4 5 6 6 7 7 8 8 8 8 9 9 9 9 9 10 10 10 10
4 4 3 2 2 1 1 1 0 0 1 1 1 1 2 2 3 4 4 5 6 6 6 7 7 7 8 8 8 9 9 10 10 10 10 11 11 12
6 5 5 4 4 4 3 3 2 2 3 3 3 3 4 4 4 5 5 6 6 6 7 7 8 8 9 9 10 10 10 11 11 11 12 12 13 13
Wind_Direction
239 237 236 235 234 235 235 235 235 236 236 237 238 239 238 240 243 244 246 249 249 250 252 254 255 258 261 263 265 266 267 269 270 271 274 276 278 280
240 238 236 235 235 236 238 237 236 236 237 238 239 240 241 244 245 245 246 247 249 250 252 253 255 258 261 263 264 267 268 269 270 272 274 276 278 279
238 237 234 234 235 236 237 237 237 237 238 238 239 240 242 243 245 245 246 247 247 249 252 253 255 257 260 262 264 267 269 270 271 272 274 276 278 280
239 237 234 235 234 235 236 237 236 237 239 239 239 240 242 241 243 245 247 248 250 252 254 256 259 260 260 263 266 268 268 270 272 273 275 276 279 280
239 237 234 235 237 237 237 237 237 238 238 239 240 240 241 241 242 243 246 247 249 252 253 256 257 256 257 261 265 266 268 269 270 273 275 276 278 280
239 236 234 236 237 236 238 238 238 238 239 240 241 241 242 242 241 242 244 245 248 249 251 252 252 252 254 257 261 264 267 269 271 273 274 276 278 279
241 238 236 236 236 234 236 236 237 238 238 240 240 239 239 240 240 241 242 244 245 246 248 248 248 251 254 256 260 263 266 266 270 273 275 276 278 280
238 236 236 236 236 236 237 238 239 239 237 238 237 237 237 237 239 239 239 241 242 243 245 247 249 251 254 257 261 262 263 264 266 270 275 277 278 280
241 238 236 235 236 240 241 241 239 237 236 235 233 234 235 235 235 234 235 237 241 241 244 248 250 252 255 258 260 263 264 266 268 270 273 277 279 281
247 240 236 235 238 240 239 237 237 236 235 233 232 231 231 232 233 233 234 238 239 239 243 247 250 255 258 260 262 264 265 267 267 268 270 274 278 280
276 245 232 229 232 233 235 237 237 236 233 233 232 231 230 230 232 232 234 235 236 240 244 248 253 255 256 259 261 263 264 267 267 268 269 272 275 277
20 305 240 231 228 232 228 228 229 230 228 228 226 227 229 228 228 227 228 231 235 239 243 248 253 254 255 258 262 263 262 263 267 268 268 270 273 276
46 58 77 178 208 211 213 214 216 217 217 219 221 223 224 221 220 221 224 227 233 238 243 246 249 251 253 256 259 262 263 263 265 265 267 271 274 279
48 53 55 65 111 157 185 196 202 203 206 210 212 213 214 217 220 222 225 230 234 239 240 244 249 251 251 252 255 259 261 262 265 266 267 270 274 277
47 53 57 66 75 92 118 134 158 174 183 191 196 201 206 211 215 218 223 229 233 238 243 247 249 250 248 249 252 255 256 257 261 264 267 271 275 279
51 55 61 68 76 87 100 111 122 131 147 164 182 195 206 209 209 215 224 229 234 238 240 238 235 236 242 246 248 250 252 256 258 261 269 274 275 279
53 58 66 73 79 88 96 107 124 124 133 147 160 175 192 204 210 220 229 233 234 237 235 231 233 239 243 245 248 250 253 257 260 265 267 268 273 280
52 58 64 68 68 74 83 94 107 117 126 134 145 158 177 193 213 226 231 233 235 236 235 234 237 243 245 247 250 253 257 260 260 262 266 269 273 280
48 54 60 64 67 73 77 84 93 104 120 136 148 154 175 196 213 224 225 228 236 239 239 241 243 244 248 251 252 255 259 262 263 264 266 269 274 279
38 45 53 59 64 71 73 79 83 90 107 128 151 171 191 204 219 232 235 237 242 247 247 245 244 246 247 250 253 258 260 261 263 265 267 271 275 278
17 23 32 45 54 58 59 63 74 89 102 119 142 164 203 225 237 243 249 254 258 257 251 247 247 248 248 249 253 258 261 262 264 267 270 272 274 276
331 338 343 345 345 349 357 4 356 234 220 214 223 241 252 256 258 259 262 265 266 263 256 250 248 249 251 255 259 262 264 266 267 269 271 273 275 277
297 297 296 292 281 277 276 273 265 257 251 252 257 261 264 268 269 268 267 268 268 265 262 259 256 257 261 264 265 266 268 269 270 271 273 275 277 279
Height
5779 5782 5786 5791 5795 5799 5803 5807 5811 5815 5819 5822 5826 5829 5832 5835 5837 5840 5842 5844 5846 5848 5850 5851 5853 5854 5855 5856 5857 5857 5857 5857 5857 5857 5856 5856 5855 5854
5771 5775 5779 5782 5787 5791 5795 5798 5802 5806 5810 5814 5817 5820 5823 5826 5829 5832 5834 5837 5839 5841 5843 5844 5845 5847 5848 5849 5849 5850 5850 5850 5850 5850 5849 5849 5848 5847
5764 5768 5771 5775 5779 5783 5787 5790 5794 5798 5802 5805 5808 5812 5815 5818 5821 5824 5826 5829 5831 5833 5835 5837 5838 5839 5840 5841 5842 5842 5843 5843 5843 5842 5842 5841 5840 5839
5758 5761 5765 5768 5772 5776 5779 5783 5786 5790 5794 5797 5800 5803 5807 5810 5813 5816 5818 5821 5823 5825 5827 5829 5830 5831 5832 5833 5834 5834 5835 5835 5835 5835 5834 5834 5833 5832
5752 5755 5758 5762 5765 5768 5772 5775 5778 5782 5785 5789 5792 5795 5798 5802 5805 5807 5810 5813 5815 5817 5819 5821 5822 5823 5824 5825 5826 5827 5827 5827 5827 5827 5826 5826 5825 5824
5747 5750 5753 5756 5759 5762 5765 5768 5771 5774 5777 5780 5784 5787 5790 5793 5796 5799 5802 5805 5807 5810 5811 5813 5814 5815 5817 5818 5819 5820 5820 5820 5820 5819 5819 5818 5818 5817
5744 5746 5748 5751 5753 5756 5759 5762 5764 5767 5770 5772 5776 5779 5782 5785 5789 5792 5795 5797 5800 5802 5804 5806 5807 5809 5810 5811 5812 5812 5813 5813 5813 5813 5812 5812 5811 5810
5740 5742 5744 5746 5749 5751 5753 5756 5758 5761 5763 5766 5769 5772 5775 5778 5781 5784 5787 5791 5793 5796 5798 5799 5800 5802 5803 5804 5805 5805 5806 5806 5807 5806 5806 5805 5805 5804
5737 5738 5740 5742 5744 5746 5748 5751 5753 5755 5758 5760 5763 5766 5769 5772 5775 5778 5781 5784 5787 5789 5791 5793 5794 5795 5796 5797 5798 5799 5800 5800 5800 5800 5799 5799 5798 5798
5735 5736 5737 5739 5741 5743 5744 5746 5748 5751 5753 5756 5758 5761 5763 5766 5769 5773 5775 5778 5781 5783 5785 5787 5788 5789 5790 5791 5792 5792 5793 5794 5794 5794 5794 5793 5792 5792
5735 5735 5736 5737 5738 5740 5741 5743 5745 5747 5749 5751 5754 5756 5759 5762 5764 5768 5771 5773 5775 5777 5779 5781 5782 5784 5785 5786 5786 5786 5787 5788 5788 5788 5788 5788 5787 5786
5735 5735 5735 5736 5737 5738 5739 5740 5742 5744 5746 5748 5751 5753 5755 5758 5761 5764 5766 5768 5770 5772 5774 5776 5777 5779 5780 5780 5781 5781 5782 5782 5783 5783 5783 5783 5783 5782
5736 5736 5736 5736 5736 5737 5738 5739 5740 5742 5743 5745 5748 5751 5753 5755 5758 5760 5762 5764 5766 5768 5770 5772 5773 5774 5775 5776 5777 5777 5778 5778 5778 5779 5779 5779 5779 5778
5738 5737 5737 5737 5737 5737 5738 5738 5740 5741 5743 5744 5747 5749 5751 5753 5755 5758 5759 5761 5763 5765 5766 5768 5769 5770 5771 5772 5773 5774 5774 5774 5775 5775 5775 5775 5775 5775
5740 5740 5739 5738 5738 5738 5738 5739 5740 5741 5743 5745 5747 5748 5750 5752 5754 5756 5757 5759 5760 5761 5763 5765 5766 5767 5768 5769 5770 5770 5771 5771 5772 5772 5772 5772 5772 5772
5743 5742 5741 5741 5740 5740 5741 5741 5742 5743 5744 5745 5747 5748 5750 5751 5753 5754 5756 5757 5758 5759 5760 5761 5762 5764 5765 5766 5767 5767 5768 5768 5769 5769 5769 5769 5769 5768
5747 5745 5745 5744 5744 5743 5743 5743 5744 5744 5745 5746 5747 5748 5749 5750 5751 5753 5754 5755 5756 5757 5758 5759 5760 5761 5762 5763 5764 5765 5765 5765 5766 5766 5766 5766 5766 5765
5750 5749 5748 5747 5747 5746 5746 5746 5746 5746 5747 5747 5748 5749 5749 5750 5751 5752 5753 5754 5755 5755 5756 5757 5758 5759 5760 5761 5761 5762 5762 5762 5763 5763 5763 5763 5763 5763
5754 5752 5751 5750 5749 5749 5748 5748 5748 5748 5748 5748 5749 5749 5750 5750 5751 5751 5752 5753 5753 5754 5754 5755 5756 5757 5758 5758 5759 5759 5759 5759 5760 5760 5760 5760 5760 5759
5756 5755 5753 5752 5751 5751 5750 5749 5749 5749 5749 5749 5749 5750 5750 5750 5751 5751 5751 5752 5752 5752 5752 5753 5754 5754 5755 5756 5756 5756 5757 5757 5757 5757 5757 5757 5757 5756
5757 5756 5755 5754 5753 5752 5751 5751 5750 5750 5750 5749 5749 5750 5750 5750 5750 5750 5750 5751 5751 5751 5751 5751 5752 5752 5753 5753 5754 5754 5754 5754 5754 5754 5754 5753 5753 5753
5757 5756 5755 5754 5753 5752 5752 5751 5751 5750 5750 5750 5750 5749 5749 5749 5749 5749 5749 5749 5749 5749 5749 5749 5750 5750 5750 5751 5751 5751 5751 5751 5751 5750 5750 5750 5750 5749
5756 5755 5754 5753 5752 5752 5751 5750 5750 5750 5749 5749 5749 5749 5748 5748 5748 5748 5747 5747 5747 5747 5747 5747 5747 5748 5748 5748 5748 5748 5748 5748 5747 5747 5747 5746 5746 5745